Woodham Mortimer, United Kingdom

4:31 PM GMT on February 25, 2017 (GMT +0000)
Southend

Weather History for EGMC - January, 2014

Change the Weather History Date:

Thursday, January 30, 2014

  Actual Average Record
Temperature  
Mean Temperature 42 °F -  
Max Temperature 46 °F 45 °F 57 °F (2002)
Min Temperature 39 °F 36 °F 30 °F (2003)
Degree Days  
Heating Degree Days 22    
Moisture  
Dew Point 39 °F    
Average Humidity 88    
Maximum Humidity 93    
Minimum Humidity 81    
Precipitation  
Precipitation 0.00 in - - ()
Sea Level Pressure  
Sea Level Pressure 29.58 in    
Wind  
Wind Speed 6 mph ()    
Max Wind Speed 10 mph    
Max Gust Speed -    
Visibility 5.0 miles    
Events Rain    
Averages and records for this station are not official NWS values.
T = Trace of Precipitation, MM = Missing Value Source: Averaged Metar Reports

Daily Weather History Graph

Daily Weather History Graph

Search for Another Location

Airport or City:

Trip Planner

Search our weather history database for the weather conditions in past years. The results will help you decide how hot, cold, wet, or windy it might be!

Date:

Astronomy

Jan. 30, 2014 Rise Set
Actual Time 7:38 AM GMT 4:42 PM GMT
Civil Twilight 7:02 AM GMT 5:19 PM GMT
Nautical Twilight 6:21 AM GMT 5:59 PM GMT
Astronomical Twilight 5:42 AM GMT 6:38 PM GMT
Moon 6:49 AM GMT (1/30) 4:41 PM GMT (1/30)
Length of Visible Light 10h 16m
Length of Day
9h 03m
Waning Crescent, 0% of the Moon is Illuminated
Jan 30
Waning Crescent
Jan 30
New
Feb 6
First Quarter
Feb 14
Full
Feb 22
Last Quarter

Hourly Weather History & Observations

Time (GMT) Temp. Windchill Dew Point Humidity Pressure Visibility Wind Dir Wind Speed Gust Speed Precip Events Conditions
12:20 AM 41.0 °F 36.4 °F 37.4 °F 87% 29.50 in 5.6 mi East 6.9 mph - N/A Rain Light Rain
12:50 AM 41.0 °F 36.4 °F 37.4 °F 87% 29.50 in 6.2 mi East 6.9 mph - N/A Rain Light Rain
1:50 AM 41.0 °F 35.8 °F 37.4 °F 87% 29.50 in 3.7 mi ENE 8.1 mph - N/A Rain Light Rain
2:50 AM 41.0 °F 34.7 °F 39.2 °F 93% 29.53 in 3.7 mi NE 10.4 mph - N/A Rain Light Rain
3:50 AM 41.0 °F 36.4 °F 39.2 °F 93% 29.50 in 4.3 mi ENE 6.9 mph - N/A   Mostly Cloudy
4:50 AM 41.0 °F 38.0 °F 37.4 °F 87% 29.53 in 4.3 mi ESE 4.6 mph - N/A Rain Light Rain
5:20 AM 41.0 °F 39.0 °F 39.2 °F 93% 29.53 in 4.3 mi ENE 3.5 mph - N/A   Mostly Cloudy
5:50 AM 41.0 °F 38.0 °F 37.4 °F 87% 29.53 in 3.7 mi East 4.6 mph - N/A Rain Light Rain
6:20 AM 39.2 °F 35.9 °F 37.4 °F 93% 29.53 in 4.3 mi SE 4.6 mph - N/A   Mostly Cloudy
6:50 AM 39.2 °F 35.0 °F 37.4 °F 93% 29.53 in 4.3 mi ESE 5.8 mph - N/A   Mostly Cloudy
7:20 AM 41.0 °F 38.0 °F 37.4 °F 87% 29.56 in 2.8 mi ESE 4.6 mph - N/A Rain Light Rain
7:50 AM 41.0 °F 37.1 °F 37.4 °F 87% 29.56 in 3.1 mi ESE 5.8 mph - N/A Rain Light Rain
8:20 AM 41.0 °F 37.1 °F 39.2 °F 93% 29.56 in 3.1 mi ESE 5.8 mph - N/A Rain Light Rain
8:50 AM 41.0 °F 37.1 °F 39.2 °F 93% 29.56 in 4.3 mi ESE 5.8 mph - N/A Rain Light Rain
9:20 AM 41.0 °F 36.4 °F 39.2 °F 93% 29.56 in 4.3 mi ESE 6.9 mph - N/A Rain Light Rain
9:50 AM 41.0 °F 38.0 °F 39.2 °F 93% 29.56 in 1.9 mi SE 4.6 mph - N/A Rain Light Rain
10:20 AM 42.8 °F 40.1 °F 39.2 °F 87% 29.56 in 3.7 mi ESE 4.6 mph - N/A Rain Light Rain
10:50 AM 42.8 °F 39.3 °F 39.2 °F 87% 29.59 in 3.7 mi SSE 5.8 mph - N/A Rain Light Rain
11:20 AM 42.8 °F 41.1 °F 39.2 °F 87% 29.59 in 3.7 mi South 3.5 mph - N/A Rain Light Rain
11:50 AM 42.8 °F - 39.2 °F 87% 29.59 in 6.2 mi Variable 2.3 mph - N/A   Mostly Cloudy
12:20 PM 42.8 °F 40.1 °F 39.2 °F 87% 29.56 in 5.6 mi ENE 4.6 mph - N/A Rain Light Rain
12:50 PM 44.6 °F 42.2 °F 41.0 °F 87% 29.56 in 6.2 mi ENE 4.6 mph - N/A Rain Light Rain
1:20 PM 44.6 °F 40.7 °F 42.8 °F 93% 29.56 in 6.2 mi ESE 6.9 mph - N/A   Mostly Cloudy
1:50 PM 46.4 °F 41.9 °F 41.0 °F 81% 29.56 in 6.2 mi ESE 9.2 mph - N/A   Scattered Clouds
2:20 PM 44.6 °F 40.2 °F 41.0 °F 87% 29.56 in 6.2 mi ESE 8.1 mph - N/A   Scattered Clouds
2:50 PM 44.6 °F 39.7 °F 41.0 °F 87% 29.56 in 6.2 mi ESE 9.2 mph - N/A   Scattered Clouds
3:20 PM 44.6 °F 40.7 °F 39.2 °F 81% 29.59 in 6.2 mi ESE 6.9 mph - N/A   Mostly Cloudy
3:50 PM 44.6 °F 40.2 °F 41.0 °F 87% 29.59 in 6.2 mi ESE 8.1 mph - N/A   Mostly Cloudy
4:20 PM 44.6 °F 40.2 °F 39.2 °F 81% 29.59 in 6.2 mi ESE 8.1 mph - N/A   Mostly Cloudy
4:50 PM 44.6 °F 40.7 °F 39.2 °F 81% 29.59 in 5.6 mi ESE 6.9 mph - N/A   Mostly Cloudy
5:20 PM 42.8 °F 38.0 °F 39.2 °F 87% 29.62 in 5.6 mi ESE 8.1 mph - N/A   Mostly Cloudy
5:50 PM 42.8 °F 38.0 °F 39.2 °F 87% 29.62 in 5.6 mi SSW 8.1 mph - N/A Rain Light Rain
6:20 PM 41.0 °F 38.0 °F 37.4 °F 87% 29.62 in 6.2 mi South 4.6 mph - N/A Rain Light Rain
6:50 PM 42.8 °F 40.1 °F 39.2 °F 87% 29.62 in 6.2 mi SE 4.6 mph - N/A Rain Light Rain
7:20 PM 41.0 °F 35.2 °F 37.4 °F 87% 29.62 in 5.0 mi SSE 9.2 mph - N/A Rain Light Rain
7:50 PM 41.0 °F 37.1 °F 37.4 °F 87% 29.62 in 5.0 mi SE 5.8 mph - N/A   Scattered Clouds
8:20 PM 42.8 °F 38.6 °F 37.4 °F 81% 29.65 in 6.2 mi SE 6.9 mph - N/A   Scattered Clouds
8:50 PM 42.8 °F 37.5 °F 37.4 °F 81% 29.65 in 6.2 mi SSE 9.2 mph - N/A   Scattered Clouds
9:20 PM 42.8 °F 38.0 °F 39.2 °F 87% 29.65 in 6.2 mi SSE 8.1 mph - N/A   Mostly Cloudy
9:50 PM 42.8 °F 38.6 °F 39.2 °F 87% 29.65 in 6.2 mi SSE 6.9 mph - N/A   Scattered Clouds
10:20 PM 42.8 °F 38.0 °F 39.2 °F 87% 29.65 in 6.2 mi South 8.1 mph - N/A   Partly Cloudy
10:50 PM 41.0 °F 38.0 °F 37.4 °F 87% 29.68 in - South 4.6 mph - N/A   Clear
11:20 PM 41.0 °F 38.0 °F 37.4 °F 87% 29.68 in - South 4.6 mph - N/A   Clear
11:50 PM 41.0 °F - 37.4 °F 87% 29.68 in - Variable 2.3 mph - N/A   Clear